Anula, Australia

10:19 PM ACST on February 20, 2018 (GMT +0930)
Anula

Weather History for 94120 - October, 2013

Change the Weather History Date:

Thursday, October 24, 2013

  Actual Average Record
Temperature  
Mean Temperature 81 °F -  
Max Temperature 89 °F 92 °F - ()
Min Temperature 73 °F 78 °F - ()
Cooling Degree Days 16    
Growing Degree Days 31 (Base 50)    
Moisture  
Dew Point 73 °F    
Average Humidity 73    
Maximum Humidity 100    
Minimum Humidity 39    
Precipitation  
Precipitation 0.12 in 0.16 in - ()
Sea Level Pressure  
Sea Level Pressure 29.81 in    
Wind  
Wind Speed 8 mph ()    
Max Wind Speed 16 mph    
Max Gust Speed -    
Visibility 7.3 miles    
Events Rain , Thunderstorm    
T = Trace of Precipitation, MM = Missing Value Source: Averaged Metar Reports

Daily Weather History Graph

Daily Weather History Graph

Search for Another Location

Airport or City:

Trip Planner

Search our weather history database for the weather conditions in past years. The results will help you decide how hot, cold, wet, or windy it might be!

Date:

Astronomy

Oct. 24, 2013 Rise Set
Actual Time 6:16 AM ACST 6:44 PM ACST
Civil Twilight 5:55 AM ACST 7:06 PM ACST
Nautical Twilight 5:29 AM ACST 7:31 PM ACST
Astronomical Twilight 5:04 AM ACST 7:57 PM ACST
Moon 11:13 PM ACST (10/24) 10:12 AM ACST (10/24)
Length of Visible Light 13h 11m
Length of Day
12h 27m
Waning Gibbous, 76% of the Moon is Illuminated
Oct 24
Waning Gibbous
Oct 27
Last Quarter
Nov 3
New
Nov 10
First Quarter
Nov 18
Full

Hourly Weather History & Observations

Time (ACST) Temp. Heat Index Dew Point Humidity Pressure Visibility Wind Dir Wind Speed Gust Speed Precip Events Conditions
12:00 AM 75 °F - 74 °F 97% 29.84 in 6 mi North 6.9 mph - - Rain , Thunderstorm Thunderstorms and Rain
12:00 AM 75.2 °F - 75.2 °F 100% 29.83 in 6.2 mi North 6.9 mph - N/A Rain , Thunderstorm Light Rain Showers
12:30 AM 75 °F - 74 °F 98% 29.85 in - North 10.4 mph - -  
12:30 AM 75.2 °F - 75.2 °F 100% 29.83 in 6.2 mi North 10.4 mph - N/A   Mostly Cloudy
1:00 AM 75.2 °F - 75.2 °F 100% 29.83 in 6.2 mi NE 8.1 mph - N/A Rain Light Rain
1:30 AM 75.2 °F - 75.2 °F 100% 29.80 in - NE 6.9 mph - N/A   Clear
2:00 AM 75.2 °F - 75.2 °F 100% 29.80 in - NE 6.9 mph - N/A   Clear
2:30 AM 75.2 °F - 73.4 °F 94% 29.77 in - NNE 8.1 mph - N/A   Clear
3:00 AM 76 °F - 74 °F 90% 29.78 in 19 mi WNW 5.8 mph - -   Partly Cloudy
3:00 AM 75.2 °F - 73.4 °F 94% 29.77 in - WNW 5.8 mph - N/A   Clear
3:30 AM 76 °F - 75 °F 94% 29.79 in - NNE 4.6 mph - -  
3:30 AM 77.0 °F - 75.2 °F 94% 29.77 in - NNE 4.6 mph - N/A   Clear
4:00 AM 77.0 °F - 73.4 °F 89% 29.80 in - ENE 4.6 mph - N/A   Clear
4:30 AM 77.0 °F - 75.2 °F 94% 29.80 in - ENE 6.9 mph - N/A   Clear
5:00 AM 77.0 °F - 75.2 °F 94% 29.80 in - ENE 8.1 mph - N/A   Clear
5:30 AM 77.0 °F - 75.2 °F 94% 29.80 in - ENE 6.9 mph - N/A   Clear
6:00 AM 77 °F - 76 °F 96% 29.82 in 19 mi ENE 6.9 mph - -   Partly Cloudy
6:00 AM 77.0 °F - 77.0 °F 100% 29.83 in 6.2 mi ENE 6.9 mph - N/A   Mostly Cloudy
6:30 AM 78 °F - 76 °F 90% 29.83 in - SE 2.3 mph - -  
6:30 AM 77.0 °F - 75.2 °F 94% 29.83 in 6.2 mi SE 2.3 mph - N/A   Mostly Cloudy
7:00 AM 78.8 °F - 75.2 °F 89% 29.83 in 6.2 mi SE 5.8 mph - N/A   Mostly Cloudy
7:30 AM 78.8 °F - 75.2 °F 89% 29.83 in 6.2 mi SE 5.8 mph - N/A   Mostly Cloudy
8:00 AM 80.6 °F 87.1 °F 77.0 °F 89% 29.86 in 6.2 mi ESE 4.6 mph - N/A   Mostly Cloudy
8:30 AM 84.2 °F 94.1 °F 77.0 °F 79% 29.86 in 6.2 mi ENE 4.6 mph - N/A   Mostly Cloudy
9:00 AM 85 °F - 75 °F 65% 29.87 in 19 mi ENE 8.1 mph - -   Partly Cloudy
9:00 AM 86.0 °F 95.1 °F 75.2 °F 70% 29.86 in 6.2 mi ENE 8.1 mph - N/A   Scattered Clouds
9:30 AM 86 °F - 74 °F 61% 29.88 in - ENE 8.1 mph - -  
9:30 AM 86.0 °F 95.1 °F 75.2 °F 70% 29.86 in 6.2 mi ENE 8.1 mph - N/A   Scattered Clouds
10:00 AM 87.8 °F 95.6 °F 73.4 °F 62% 29.86 in 6.2 mi East 9.2 mph - N/A   Scattered Clouds
10:30 AM 87.8 °F 92.6 °F 69.8 °F 55% 29.86 in 6.2 mi ENE 8.1 mph - N/A   Scattered Clouds
11:00 AM 89.6 °F 91.1 °F 64.4 °F 43% 29.86 in 6.2 mi ENE 3.5 mph - N/A   Partly Cloudy
11:30 AM 89.6 °F 93.4 °F 68.0 °F 49% 29.83 in 6.2 mi NE 6.9 mph - N/A   Partly Cloudy
12:00 PM 89 °F - 72 °F 48% 29.83 in 19 mi North 8.1 mph - -   Partly Cloudy
12:00 PM 89.6 °F 96.2 °F 71.6 °F 55% 29.83 in 6.2 mi North 8.1 mph - N/A   Scattered Clouds
12:30 PM 87 °F - 73 °F 56% 29.83 in - West 13.8 mph - -  
12:30 PM 86.0 °F 93.4 °F 73.4 °F 66% 29.83 in 6.2 mi West 13.8 mph - N/A   Mostly Cloudy
1:00 PM 86.0 °F 93.4 °F 73.4 °F 66% 29.80 in 6.2 mi NW 11.5 mph - N/A Rain Light Rain Showers
1:07 PM 86.0 °F 93.4 °F 73.4 °F 66% 29.80 in 3.1 mi NW 11.5 mph - N/A Rain Rain Showers
1:10 PM 84.2 °F 94.1 °F 77.0 °F 79% 29.80 in 1.2 mi WNW 11.5 mph - N/A Rain Heavy Rain Showers
1:15 PM 82.4 °F 89.5 °F 75.2 °F 79% 29.80 in 3.7 mi North 12.7 mph - N/A Rain Rain Showers
1:27 PM 84.2 °F 92.3 °F 75.2 °F 74% 29.80 in 6.2 mi NW 10.4 mph - N/A   Scattered Clouds
1:30 PM 86.0 °F 95.1 °F 75.2 °F 70% 29.80 in 6.2 mi NW 10.4 mph - N/A   Scattered Clouds
1:39 PM 86.0 °F 96.9 °F 77.0 °F 74% 29.80 in 1.2 mi NW 10.4 mph - N/A Rain Rain Showers
1:44 PM 86.0 °F 95.1 °F 75.2 °F 70% 29.80 in 3.7 mi North 15.0 mph - N/A Rain Rain Showers
2:00 PM 86.0 °F 93.4 °F 73.4 °F 66% 29.77 in 6.2 mi NNW 9.2 mph - N/A   Scattered Clouds
2:30 PM 89.6 °F 98.2 °F 73.4 °F 59% 29.77 in 6.2 mi NNW 11.5 mph - N/A   Scattered Clouds
2:54 PM 87.8 °F 95.6 °F 73.4 °F 62% 29.77 in 6.2 mi North 15.0 mph - N/A Rain Rain Showers
2:56 PM 87.8 °F 95.6 °F 73.4 °F 62% 29.77 in 2.5 mi North 15.0 mph - N/A Rain Heavy Rain Showers
3:00 PM 84 °F - 76 °F 71% 29.77 in 6 mi North 16.1 mph - - Rain Light Rain Showers
3:00 PM 84.2 °F 92.3 °F 75.2 °F 74% 29.77 in 6.2 mi North 16.1 mph - N/A Rain Rain Showers
3:30 PM 88 °F - 75 °F 58% 29.77 in - North 11.5 mph - -  
3:30 PM 87.8 °F 97.6 °F 75.2 °F 66% 29.77 in 6.2 mi North 11.5 mph - N/A   Scattered Clouds
4:00 PM 89.6 °F 96.2 °F 71.6 °F 55% 29.74 in 6.2 mi North 11.5 mph - N/A   Scattered Clouds
4:30 PM 89.6 °F 93.4 °F 68.0 °F 49% 29.74 in 6.2 mi North 11.5 mph - N/A   Scattered Clouds
5:00 PM 89.6 °F 93.4 °F 68.0 °F 49% 29.74 in 6.2 mi North 13.8 mph - N/A   Scattered Clouds
5:30 PM 87.8 °F 91.4 °F 68.0 °F 52% 29.74 in 6.2 mi North 11.5 mph - N/A   Scattered Clouds
6:00 PM 88 °F - 66 °F 39% 29.74 in 19 mi North 10.4 mph - -   Partly Cloudy
6:00 PM 87.8 °F 90.4 °F 66.2 °F 49% 29.74 in 6.2 mi North 10.4 mph - N/A   Mostly Cloudy
6:30 PM 87 °F - 68 °F 43% 29.76 in - NNE 9.2 mph - -  
6:30 PM 86.0 °F 89.4 °F 68.0 °F 55% 29.74 in 6.2 mi NNE 9.2 mph - N/A   Mostly Cloudy
7:00 PM 86.0 °F 90.4 °F 69.8 °F 58% 29.77 in 6.2 mi NNE 6.9 mph - N/A   Mostly Cloudy
7:30 PM 84.2 °F 88.4 °F 69.8 °F 62% 29.77 in - North 4.6 mph - N/A   Clear
8:00 PM 84.2 °F 88.4 °F 69.8 °F 62% 29.80 in - North 4.6 mph - N/A   Clear
8:30 PM 82.4 °F 87.2 °F 71.6 °F 70% 29.80 in - NE 4.6 mph - N/A   Clear
9:00 PM 84 °F - 73 °F 63% 29.83 in 19 mi NW 12.7 mph - -   Partly Cloudy
9:00 PM 84.2 °F 90.9 °F 73.4 °F 70% 29.83 in 6.2 mi NW 12.7 mph - N/A   Mostly Cloudy
9:30 PM 84 °F - 74 °F 65% 29.85 in - NW 16.1 mph - -  
9:30 PM 84.2 °F 90.9 °F 73.4 °F 70% 29.83 in 6.2 mi NW 16.1 mph - N/A   Mostly Cloudy
10:00 PM 84.2 °F 89.6 °F 71.6 °F 66% 29.86 in 6.2 mi NW 15.0 mph - N/A   Mostly Cloudy
10:30 PM 84.2 °F 90.9 °F 73.4 °F 70% 29.86 in - WNW 16.1 mph - N/A   Clear
11:00 PM 82.4 °F 89.5 °F 75.2 °F 79% 29.86 in 6.2 mi NW 11.5 mph - N/A   Mostly Cloudy
11:30 PM 82.4 °F 88.2 °F 73.4 °F 74% 29.86 in 6.2 mi WNW 11.5 mph - N/A   Mostly Cloudy